星链-31855 (STARLINK-31855 )

导读

STARLINK-31855是美国太空探索技术公司SpaceX星链星座的卫星,于北京时间2024年5月23日发射入轨,属于星链组网部署的一部分,服务全球卫星互联网覆盖,为偏远地区、航海航空等场景提供低延迟宽带接入服务,助力SpaceX完成近地轨道大规模星座的组网建设目标。

基本信息
目录编号:
59838
目录名称:
STARLINK-31855
国际标识:
2024-097D
轨道中心:
EARTH
卫星名称:
星链-31855
卫星全名:
星链-31855 (STARLINK-31855 )
卫星状态:
在轨 (已飞行834 天)
发射日期:
2024-05-23 UTC
国别 :
美国 (US)
星等 :
--
轨道信息
数据来源 国际轨道数据
星历时间: 2026-09-04T14:49:14+0800
6小时前
查看轨道信息
半长轴: 6861.164km
偏心率: 0.0000897
轨道倾角: 43.000°
近地点辐角 283.001°
升交点赤经 345.478°
平近点角 77.074°
近地点: 482.411km
远地点: 483.643km
周期: 94.266分钟
每日圈数: 15.275875
详细信息
固有亮度:
5
最大亮度:
1.5
卫星平台:
Starlink v2.0 mini
覆盖范围:
全球
运营商:
太空探索技术公司
运营商所在国:
美国
制造商(研发单位):
太空探索技术公司
制造商所在国:
美国
使用方式:
暂无
卫星简介
星链(Starlink)计划是由太空探索技术公司(SpaceX)提出的一个巨型低轨卫星互联网星座项目,计划在2019年至2024年间在太空搭建由约1.2万颗卫星组成的“星链”网络,其中1584颗将部署在地球上空550千米处的近地轨道,并从2020年开始工作。该卫星仍在工作。
2D轨道图
3D轨道图
轨道高度分析图
轨道倾角分析图
轨道综合分析图
查看轨道综合分析图
交会数据列表
事件ID 空间交会对象 最接近时刻(TCA) 交会距离 交会风险概率(CRP) 交会风险指数(CRI) 操作
CDM_260905-205105-744205-983821
2026-09-05T
20:51:02+0000
0.148 km
中距离
5.387341E-4 高风险 0.9
CDM_260904-174105-983806-398821
OBJECT G (63988)
2026-09-04T
17:41:42+0000
0.686 km
远距离
5.675761E-5 中风险 0.7
CDM_260906-043205-983806-390221
2026-09-06T
04:32:38+0000
0.918 km
远距离
2.328438E-5 中风险 0.62
CDM_260905-151205-983806-390221
2026-09-05T
15:12:20+0000
1.477 km
极远距离
4.593415E-6 低风险 0.48
CDM_260831-085205-983806-862721
OBJECT A (68627)
2026-08-31T
08:52:56+0000
1.656 km
极远距离
3.847575E-6 低风险 0.47
CDM_260905-200305-744205-983821
2026-09-05T
20:03:58+0000
1.181 km
极远距离
3.139258E-6 低风险 0.45
CDM_260906-060605-983806-390221
2026-09-06T
06:06:47+0000
1.768 km
极远距离
2.668859E-6 低风险 0.44
CDM_260906-025805-983806-390221
2026-09-06T
02:58:29+0000
1.851 km
极远距离
2.352099E-6 低风险 0.42
CDM_260905-213805-744205-983821
2026-09-05T
21:38:07+0000
1.334 km
极远距离
2.126095E-6 低风险 0.42
CDM_260905-164605-983806-390221
2026-09-05T
16:46:29+0000
1.961 km
极远距离
2.023423E-6 低风险 0.41